This is the latest recevied weather packets stored in our database for station/object KI6SYE. If no packets are shown the sender has not sent any weather packets the latest 1 day(s).
| Time | Temp. | Humidity | Pressure | Rain* | Wind** | Luminosity | Snow |
|---|---|---|---|---|---|---|---|
| 1778029761 | 16.11° C | 79% | 1014 hPa | 0 mm | 1.79 m/s, 223° | 71 W/m² | - |
| 1778029460 | 16.11° C | 79% | 1014.4 hPa | 0 mm | 1.34 m/s, 280° | 68 W/m² | - |
| 1778029156 | 16.67° C | 79% | 1014.4 hPa | 0 mm | 1.79 m/s, 257° | 67 W/m² | - |
| 1778028854 | 16.67° C | 79% | 1014.4 hPa | 0 mm | 2.24 m/s, 236° | 65 W/m² | - |
| 1778028549 | 16.67° C | 77% | 1014.3 hPa | 0 mm | 1.34 m/s, 294° | 62 W/m² | - |
| 1778028247 | 16.67° C | 78% | 1014.2 hPa | 0 mm | 2.24 m/s, 229° | 70 W/m² | - |
| 1778027943 | 16.67° C | 78% | 1014.1 hPa | 0 mm | 1.79 m/s, 225° | 113 W/m² | - |
| 1778027639 | 17.22° C | 76% | 1014.3 hPa | 0 mm | 3.13 m/s, 245° | 107 W/m² | - |
| 1778027336 | 17.22° C | 75% | 1014.2 hPa | 0 mm | 1.34 m/s, 296° | 133 W/m² | - |
| 1778027032 | 17.78° C | 75% | 1014.2 hPa | 0 mm | 1.79 m/s, 259° | 358 W/m² | - |
| 1778026728 | 17.78° C | 74% | 1014.1 hPa | 0 mm | 2.68 m/s, 234° | 310 W/m² | - |
| 1778026425 | 17.22° C | 74% | 1014 hPa | 0 mm | 3.58 m/s, 233° | 341 W/m² | - |
| 1778026133 | 17.22° C | 74% | 1014.2 hPa | 0 mm | 3.13 m/s, 239° | 309 W/m² | - |
| 1778025820 | 17.78° C | 74% | 1014.1 hPa | 0 mm | 2.24 m/s, 211° | 324 W/m² | - |
| 1778025516 | 17.22° C | 75% | 1014.2 hPa | 0 mm | 2.68 m/s, 297° | 360 W/m² | - |
| 1778025214 | 16.67° C | 77% | 1014 hPa | 0 mm | 2.24 m/s, 241° | 269 W/m² | - |
| 1778024911 | 17.22° C | 76% | 1014 hPa | 0 mm | 2.68 m/s, 243° | 165 W/m² | - |
| 1778024609 | 16.67° C | 77% | 1014.2 hPa | 0 mm | 3.58 m/s, 240° | 178 W/m² | - |
| 1778024316 | 16.67° C | 77% | 1014 hPa | 0 mm | 3.13 m/s, 214° | 160 W/m² | - |
| 1778024003 | 17.22° C | 76% | 1014.4 hPa | 0 mm | 2.24 m/s, 297° | 160 W/m² | - |
| 1778023700 | 17.22° C | 73% | 1014.2 hPa | 0 mm | 2.68 m/s, 346° | 166 W/m² | - |
| 1778023398 | 17.78° C | 73% | 1014.4 hPa | 0 mm | 2.24 m/s, 275° | 346 W/m² | - |
| 1778023094 | 17.78° C | 70% | 1014.2 hPa | 0 mm | 0.45 m/s, 245° | 226 W/m² | - |
| 1778022793 | 18.33° C | 69% | 1014.3 hPa | 0 mm | 3.58 m/s, 232° | 241 W/m² | - |
| 1778022490 | 17.78° C | 71% | 1014.1 hPa | 0 mm | 4.47 m/s, 279° | 379 W/m² | - |
* Rain latest hour (hover to see other rain measurements)
** Current wind speed in m/s (hover to see current wind gust speed)